This is the latest recevied weather packets stored in our database for station/object KC5TIL-3. If no packets are shown the sender has not sent any weather packets the latest 10 day(s).
| Time | Temp. | Humidity | Pressure | Rain* | Wind** | Luminosity | Snow |
|---|---|---|---|---|---|---|---|
| 1787846072 | 33.33° C | 25% | 1013.8 hPa | 0 mm | 1.79 m/s, 299° | - | - |
| 1787845773 | 32.78° C | 26% | 1013.8 hPa | 0 mm | 1.34 m/s, 297° | - | - |
| 1787845475 | 32.78° C | 27% | 1013.8 hPa | 0 mm | 0 m/s | - | - |
| 1787845174 | 32.22° C | 27% | 1013.8 hPa | 0 mm | 2.24 m/s, 306° | - | - |
| 1787844875 | 32.22° C | 28% | 1013.8 hPa | 0 mm | 1.34 m/s, 303° | - | - |
| 1787844577 | 32.22° C | 28% | 1013.8 hPa | 0 mm | 1.79 m/s, 12° | - | - |
| 1787844276 | 32.22° C | 28% | 1013.8 hPa | 0 mm | 1.34 m/s, 321° | - | - |
| 1787843978 | 31.67° C | 28% | 1013.8 hPa | 0 mm | 1.79 m/s, 290° | - | - |
| 1787843680 | 31.67° C | 30% | 1013.8 hPa | 0 mm | 0 m/s | - | - |
| 1787843378 | 31.11° C | 31% | 1013.8 hPa | 0 mm | 0 m/s | - | - |
| 1787843080 | 31.11° C | 31% | 1013.8 hPa | 0 mm | 1.34 m/s, 324° | - | - |
| 1787842782 | 31.11° C | 32% | 1012.8 hPa | 0 mm | 1.34 m/s, 325° | - | - |
| 1787842481 | 31.11° C | 33% | 1012.8 hPa | 0 mm | 1.34 m/s, 324° | - | - |
| 1787842182 | 30.56° C | 34% | 1012.8 hPa | 0 mm | 0 m/s | - | - |
| 1787841884 | 30° C | 36% | 1012.8 hPa | 0 mm | 1.79 m/s, 327° | - | - |
| 1787841583 | 30° C | 37% | 1012.8 hPa | 0 mm | 0 m/s | - | - |
| 1787841285 | 30° C | 38% | 1012.8 hPa | 0 mm | 1.79 m/s, 335° | - | - |
| 1787840986 | 29.44° C | 39% | 1012.8 hPa | 0 mm | 2.24 m/s, 351° | - | - |
| 1787840685 | 29.44° C | 38% | 1012.8 hPa | 0 mm | 1.79 m/s, 319° | - | - |
| 1787840387 | 29.44° C | 38% | 1012.8 hPa | 0 mm | 1.34 m/s, 288° | - | - |
| 1787840089 | 30° C | 38% | 1012.8 hPa | 0 mm | 0 m/s | - | - |
| 1787839787 | 29.44° C | 39% | 1012.8 hPa | 0 mm | 0 m/s | - | - |
| 1787839489 | 29.44° C | 39% | 1012.8 hPa | 0 mm | 0 m/s | - | - |
| 1787839191 | 29.44° C | 40% | 1012.8 hPa | 0 mm | 0 m/s | - | - |
| 1787838890 | 29.44° C | 41% | 1012.8 hPa | 0 mm | 0 m/s | - | - |
* Rain latest hour (hover to see other rain measurements)
** Current wind speed in m/s (hover to see current wind gust speed)